Showing default

EMISAR, 68427

Orbit data source: Space-Track

EMISAR, 68427 is a Romanian payload satellite in SSO that was launched on Mon, 30 Mar 2026 UTC via an FALCON 9 launch vehicle from the Air Force Western Test Range (AFWTR). Payload-class satellites include a variety of spacecraft equipped with specific instruments for various scientific and technological missions. These include communications satellites like Starlink; space stations such as the ISS; scientific satellites like the Hubble; Earth observation satellites from companies like Planet Labs, Umbra, and HawkEye 360; GPS; miniature CubeSats for education and research; and military/defense satellites.

Loading next visibility...
Identifier
68427, 2026-067M
Orbit
SSO
Country
Flag of RORO / ROM
Related business
Manufacturer
RISERO
Mission
Operational spacecraft
Bus & Motor
CUBESAT 1U, Unknown motor
Mass
~1 kg wet, ~1 kg dry
Launch date (UTC)
2026-03-30 (3 months ago)
Launch vehicle
FALCON 9
Launch site
Air Force Western Test Range (AFWTR)
Object type
Payload
Rocket body
Debris
Shape & HBR
Unknown shape, 0.1 m
Radar Cross Section
Medium (>0.1 m² and <1 m²)

Expand to show TLE details & history
Last TLE update: 2 days ago

TLE from 2 days ago
0 EMISAR
1 68427U 26067M   26171.39902397  .00006920  00000-0  33002-3 0  9995
2 68427  97.4550 129.9069 0001969  49.5250 310.6156 15.19404719 12438
Epoch: 2026-06-20T09:34Z
TLE epoch observation values (Epoch: 2026-06-20T09:34:35.671Z)
Latitude
Longitude
77.64406°
Altitude
509.844 km
Speed
7.609 km/s
True Right ascension
08h 39m 37s
True Declination
0° 00' 00"
Sunlit
Object was in daylight at epoch
Visualization orbit readout
Latitude
Unknown
Longitude
Unknown
Altitude
Unknown
Speed
Unknown
Apparent Right ascension
Unknown
Apparent Declination
Unknown
Sunlit
N/A
Visualization observer readout
Local Sidereal Time
15:15:44
Azimuth
Unknown
Elevation
Unknown
Doppler factor
Unknown
Orbital elements
Apogee altitude
505.962 km
Perigee altitude
503.252 km
Semi-major axis
6,882.744 km
Eccentricity
0.0002
Inclination
97.455°
RAAN
129.9069°
Arg. of periapsis
49.525°
True anomaly
310.59847°
Mean anomaly
310.6156°
Eccentric anomaly
310.60704°
Mean motion
3.80102 °/min
Orbital period
94.71 mins
BSTAR
0.00033002
Loading maneuver chart data...
Computing Atmospheric mass density...
Loading historical data...
Loading historical data...
Loading historical data...
Loading historical data...
Loading historical data...
Loading historical data...
Loading historical data...

Documentation

Showing up to 5 results
|